(136108) Haumea
ephemeris date magn radius delta ra dec elong phase
Opposition21 Apr 202517.249.892 AU49.008 AU14h38m+14°56'151.2°0.6°
Today7 May 202517.249.888 AU49.030 AU14h37m+15°00'147.9°0.6°
(136108) Haumea - 2025-05-07
astro.vanbuitenen.nl


 
-1 year
-1 month
-1 day
Now
+1 day
+1 month
+1 year

The interactive orbit chart above shows the body's path through the solar system and its position at the given date. Green and blue lines are shown perpendicular to the ecliptic plane: Green if the path is above the ecliptic plane, blue if it is below. (Left-click and drag to rotate the view; Right-click and drag to move the view; Use scroll wheel to zoom in our out.)

The orbital elements of Haumea are:

            e (Eccentricity)                : 0.1970290
            a (Semimajor axis)              : 42.9611834
            i (Inclination)                 : 28.20836
            Ω (Longitude of ascending node) : 121.82560
            ω (Argument of perihelion)      : 240.97503
            M (Mean anomaly)                : 221.56688
            Epoch                           : 2025 May 05

            L (Longitude of perihelion)     : 179.62858
            B (Latitude of perihelion)      : -24.41323
            P (Orbital period in years)     : 281.59            
        

The light curve chart below shows the estimated development of the minor planet's magnitude.


The all-sky chart below shows the path of the minor planet over the same period as the light curve. The current position is marked yellow.





The following chart shows the path of the minor planet in the next few days. The field of view is optimized for (~10x50) binoculars and finderscopes. A more printer-friendly version of the same chart can be found below.




Ephemerides:
Date       Time       RA (2000)    DEC (2000)    delta   radius  elong  phase   PA    magn
2025-05-07 00:00 UT   14 37 08.2   +15 00 53    49.030   49.888  147.9    0.6   172   17.2 
2025-05-07 01:46 UT   14 37 07.9   +15 00 54    49.030   49.888  147.9    0.6   172   17.2 
2025-05-08 00:00 UT   14 37 04.1   +15 01 06    49.033   49.887  147.5    0.6   170   17.2 
2025-05-09 00:00 UT   14 36 60.0   +15 01 18    49.037   49.887  147.1    0.6   168   17.2 
2025-05-10 00:00 UT   14 36 55.9   +15 01 30    49.041   49.887  146.6    0.6   167   17.2 
2025-05-11 00:00 UT   14 36 51.8   +15 01 41    49.045   49.887  146.1    0.6   165   17.2 
2025-05-12 00:00 UT   14 36 47.8   +15 01 52    49.050   49.886  145.6    0.7   164   17.2 
2025-05-13 00:00 UT   14 36 43.8   +15 02 01    49.054   49.886  145.1    0.7   162   17.2 
2025-05-14 00:00 UT   14 36 39.7   +15 02 10    49.059   49.886  144.5    0.7   161   17.2 
2025-05-15 00:00 UT   14 36 35.7   +15 02 19    49.065   49.886  144.0    0.7   160   17.2 
2025-05-16 00:00 UT   14 36 31.8   +15 02 26    49.070   49.885  143.4    0.7   158   17.2 
2025-05-17 00:00 UT   14 36 27.8   +15 02 33    49.076   49.885  142.8    0.7   157   17.2 
2025-05-18 00:00 UT   14 36 23.8   +15 02 40    49.082   49.885  142.2    0.7   156   17.2 
2025-05-19 00:00 UT   14 36 19.9   +15 02 46    49.088   49.885  141.6    0.7   154   17.2 
2025-05-20 00:00 UT   14 36 16.0   +15 02 51    49.094   49.884  141.0    0.7   153   17.2 
2025-05-21 00:00 UT   14 36 12.1   +15 02 55    49.101   49.884  140.4    0.7   152   17.2 
2025-05-22 00:00 UT   14 36 08.3   +15 02 58    49.108   49.884  139.7    0.8   151   17.2 
2025-05-23 00:00 UT   14 36 04.5   +15 03 01    49.115   49.884  139.1    0.8   150   17.2 
2025-05-24 00:00 UT   14 36 00.7   +15 03 04    49.122   49.883  138.4    0.8   149   17.2 
2025-05-25 00:00 UT   14 35 56.9   +15 03 05    49.129   49.883  137.7    0.8   148   17.2 
2025-05-26 00:00 UT   14 35 53.2   +15 03 06    49.137   49.883  137.0    0.8   147   17.3 
2025-05-27 00:00 UT   14 35 49.5   +15 03 06    49.145   49.883  136.3    0.8   146   17.3 
2025-05-28 00:00 UT   14 35 45.8   +15 03 06    49.153   49.882  135.6    0.8   145   17.3 
2025-05-29 00:00 UT   14 35 42.2   +15 03 04    49.161   49.882  134.9    0.8   144   17.3 
2025-05-30 00:00 UT   14 35 38.6   +15 03 02    49.170   49.882  134.2    0.8   143   17.3 
2025-05-31 00:00 UT   14 35 35.0   +15 02 60    49.179   49.882  133.5    0.8   142   17.3 
2025-06-01 00:00 UT   14 35 31.5   +15 02 56    49.188   49.881  132.7    0.9   141   17.3 
2025-06-02 00:00 UT   14 35 28.0   +15 02 52    49.197   49.881  132.0    0.9   140   17.3 
2025-06-03 00:00 UT   14 35 24.6   +15 02 48    49.206   49.881  131.3    0.9   139   17.3 
2025-06-04 00:00 UT   14 35 21.2   +15 02 42    49.216   49.881  130.5    0.9   138   17.3 
2025-06-05 00:00 UT   14 35 17.8   +15 02 36    49.226   49.880  129.8    0.9   138   17.3 
2025-06-06 00:00 UT   14 35 14.5   +15 02 29    49.235   49.880  129.0    0.9   137   17.3 


    Terminology:
            
    delta:  distance between minor planet and earth in AU
    radius: distance between minor planet and sun in AU
    magn:   magnitude (brightness) estimate    
    ra:     right ascension in hours (24h = 360deg)
    dec:    declination in degrees
    elong:  elongation in degrees (angle sun-earth-minor planet)    
    phase:  phase angle in degrees (angle sun-minor planet-earth)        
    AU:     Astronomical Unit (mean distance between earth and sun: 149597870.7 km
    

Orbital elements provided by the MPC (Minor Planet Center).
Calculations by a modified version of AAPlus, a C# implementation of the AA+ project by PJ Naughter from the algorithms presented in the book "Astronomical Algorithms" by Jean Meeus.
NGC2000 dso catalog and star labels from VizieR as provided by the Strasbourg astronomical Data Center.
Tycho2 catalog from the ESO archive.